N0TKN Weather Reports


Display with metric or nautical units.
time (UTC)temp
F
wind
direction
speed
MPH
gust
MPH
rain 1hr
in
rain 24hr
in
rain mn
in
humidity
%
barometer
mb
20260906161518 90 115 2.0 6.0 0.00 0.00 0.00 64 1015.4
20260906160516 89 92 2.0 6.0 0.00 0.00 0.00 65 1015.4
20260906155516 89 83 2.0 4.0 0.00 0.00 0.00 66 1015.5
20260906154516 88 138 2.0 6.0 0.00 0.00 0.00 66 1015.4
20260906153516 87 112 2.0 5.0 0.00 0.00 0.00 68 1015.5
20260906152516 87 94 2.0 6.0 0.00 0.00 0.00 68 1015.3
20260906151516 86 88 2.0 5.0 0.00 0.00 0.00 70 1015.3
20260906150516 85 71 2.0 5.0 0.00 0.00 0.00 71 1015.2
20260906145516 85 67 2.0 5.0 0.00 0.00 0.00 72 1015.3
20260906144517 85 80 2.0 5.0 0.00 0.00 0.00 72 1015.3
20260906143517 85 110 2.0 7.0 0.00 0.00 0.00 73 1015.2
20260906142517 84 94 2.0 6.0 0.00 0.00 0.00 74 1015.1
20260906141517 83 63 2.0 4.0 0.00 0.00 0.00 76 1015.2
20260906140518 83 118 2.0 6.0 0.00 0.00 0.00 76 1015.2
20260906135517 82 119 3.0 6.0 0.00 0.00 0.00 78 1015.2
20260906134518 82 88 2.0 5.0 0.00 0.00 0.00 78 1015.1
20260906133517 81 90 2.0 3.0 0.00 0.00 0.00 80 1015.0
20260906132517 81 69 2.0 4.0 0.00 0.00 0.00 82 1014.9
20260906131518 80 63 1.0 3.0 0.00 0.00 0.00 84 1015.0
20260906130518 79 60 2.0 4.0 0.00 0.00 0.00 85 1014.9
20260906125515 78 60 2.0 4.0 0.00 0.00 0.00 87 1014.9
20260906124515 78 56 3.0 4.0 0.00 0.00 0.00 88 1014.8
20260906123527 77 63 2.0 3.0 0.00 0.00 0.00 89 1014.7
20260906122528 77 69 2.0 2.0 0.00 0.00 0.00 89 1014.6
20260906121528 77 79 1.0 2.0 0.00 0.00 0.00 90 1014.5
20260906120528 76 78 1.0 2.0 0.00 0.00 0.00 90 1014.5
20260906115528 76 66 2.0 3.0 0.00 0.00 0.00 90 1014.4
20260906114528 76 61 2.0 3.0 0.00 0.00 0.00 90 1014.3
20260906113529 76 48 2.0 4.0 0.00 0.00 0.00 90 1014.3
20260906112518 76 47 2.0 3.0 0.00 0.00 0.00 89 1014.2
20260906111518 76 45 1.0 2.0 0.00 0.00 0.00 89 1014.1
20260906110518 76 43 2.0 3.0 0.00 0.00 0.00 88 1014.2
20260906105518 77 48 1.0 2.0 0.00 0.00 0.00 88 1014.1
20260906104517 77 49 1.0 2.0 0.00 0.00 0.00 87 1014.1
20260906103516 77 47 1.0 2.0 0.00 0.00 0.00 86 1014.1
20260906102515 77 52 0.0 3.0 0.00 0.00 0.00 86 1014.0
20260906101518 77 55 0.0 2.0 0.00 0.00 0.00 86 1013.8
20260906100515 77 48 1.0 2.0 0.00 0.00 0.00 85 1013.7
20260906095516 78 52 0.0 2.0 0.00 0.00 0.00 85 1013.6
20260906094516 77 45 0.0 2.0 0.00 0.00 0.00 85 1013.5
20260906093516 78 79 0.0 1.0 0.00 0.00 0.00 84 1013.4
20260906092516 78 29 0.0 1.0 0.00 0.00 0.00 84 1013.4
20260906091517 77 46 1.0 2.0 0.00 0.00 0.00 84 1013.3
20260906090516 77 17 0.0 2.0 0.00 0.00 0.00 85 1013.2
20260906085517 77 38 0.0 1.0 0.00 0.00 0.00 84 1013.1
20260906084517 78 49 0.0 1.0 0.00 0.00 0.00 83 1013.0
20260906083517 78 327 0.0 1.0 0.00 0.00 0.00 82 1013.0
20260906082517 78 226 0.0 1.0 0.00 0.00 0.00 82 1013.0
20260906081517 78 11 0.0 1.0 0.00 0.00 0.00 82 1012.9
20260906080517 78 0.0 0.0 0.00 0.00 0.00 82 1012.9
20260906075517 78 15 0.0 1.0 0.00 0.00 0.00 82 1013.0
20260906074517 78 23 0.0 0.0 0.00 0.00 0.00 82 1013.0
20260906073518 78 47 0.0 1.0 0.00 0.00 0.00 82 1013.1
20260906072518 78 301 0.0 1.0 0.00 0.00 0.00 81 1013.1
20260906071518 78 303 0.0 1.0 0.00 0.00 0.00 81 1013.1
20260906070515 79 0.0 0.0 0.00 0.00 0.00 81 1013.1
20260906065515 79 280 0.0 1.0 0.00 0.00 0.00 80 1013.2
20260906064516 79 311 0.0 1.0 0.00 0.00 0.00 80 1013.3
20260906063516 79 13 0.0 1.0 0.00 0.00 0.00 79 1013.3
20260906062516 79 324 0.0 1.0 0.00 0.00 0.00 79 1013.3
20260906061516 79 307 0.0 1.0 0.00 0.00 0.00 80 1013.4
20260906060516 79 0.0 0.0 0.00 0.00 0.00 81 1013.4
20260906055517 78 313 0.0 1.0 0.00 0.00 0.00 82 1013.4
20260906054517 78 244 0.0 2.0 0.00 0.00 0.00 84 1013.5
20260906053517 79 297 0.0 1.0 0.00 0.00 0.00 83 1013.4
20260906052517 79 326 1.0 2.0 0.00 0.00 0.00 83 1013.3
20260906051517 80 44 0.0 1.0 0.00 0.00 0.00 82 1013.3
20260906050517 80 2 0.0 2.0 0.00 0.00 0.00 80 1013.3
20260906045517 80 42 0.0 1.0 0.00 0.00 0.00 79 1013.2
20260906044517 80 350 0.0 1.0 0.00 0.00 0.00 78 1013.2
20260906043518 80 225 0.0 1.0 0.00 0.00 0.00 79 1013.2
20260906042518 80 252 0.0 1.0 0.00 0.00 0.00 78 1013.3
20260906041518 81 257 0.0 1.0 0.00 0.00 0.00 78 1013.3
20260906040518 81 2 0.0 1.0 0.00 0.00 0.00 77 1013.1
20260906035518 81 49 0.0 1.0 0.00 0.00 0.00 76 1013.0
20260906034516 82 332 0.0 1.0 0.00 0.00 0.00 75 1012.9
20260906033516 82 340 0.0 1.0 0.00 0.00 0.00 74 1012.8
20260906032516 83 0.0 0.0 0.00 0.00 0.00 73 1012.7
20260906031516 83 168 0.0 2.0 0.00 0.00 0.00 71 1012.8
20260906030516 84 262 0.0 1.0 0.00 0.00 0.00 68 1012.8
20260906025516 85 0.0 0.0 0.00 0.00 0.00 66 1012.6
20260906024517 85 304 0.0 1.0 0.00 0.00 0.00 64 1012.5
20260906023517 86 29 0.0 1.0 0.00 0.00 0.00 62 1012.4
20260906022517 86 336 0.0 0.0 0.00 0.00 0.00 61 1012.3
20260906021517 87 349 0.0 0.0 0.00 0.00 0.00 60 1012.2
20260906020517 87 0.0 0.0 0.00 0.00 0.00 60 1012.1
20260906015517 88 321 0.0 1.0 0.00 0.00 0.00 59 1011.9
20260906014517 88 139 0.0 0.0 0.00 0.00 0.00 58 1011.8
20260906013517 88 70 0.0 1.0 0.00 0.00 0.00 58 1011.9
20260906012517 89 44 0.0 1.0 0.00 0.00 0.00 57 1011.7
20260906011518 89 67 1.0 4.0 0.00 0.00 0.00 57 1011.6
20260906010518 89 15 0.0 0.0 0.00 0.00 0.00 57 1011.5
20260906005515 90 28 1.0 3.0 0.00 0.00 0.00 57 1011.3
20260906004516 90 27 2.0 3.0 0.00 0.00 0.00 55 1011.3
20260906003515 93 41 2.0 4.0 0.00 0.00 0.00 55 1011.3
20260906002516 94 298 1.0 2.0 0.00 0.00 0.00 47 1011.2
20260906001516 94 297 1.0 2.0 0.00 0.00 0.00 46 1011.3
20260906000517 94 311 2.0 2.0 0.00 0.00 0.00 45 1011.2
20260905235516 95 311 2.0 3.0 0.00 0.00 0.00 44 1011.3
20260905234516 95 313 2.0 3.0 0.00 0.00 0.00 45 1011.3
20260905233517 96 314 2.0 3.0 0.00 0.00 0.00 44 1011.3
20260905232517 96 322 2.0 3.0 0.00 0.00 0.00 44 1011.2
20260905231517 96 317 2.0 3.0 0.00 0.00 0.00 43 1011.3
20260905230518 97 316 2.0 3.0 0.00 0.00 0.00 43 1011.3
20260905225517 97 311 2.0 3.0 0.00 0.00 0.00 43 1011.3
20260905224517 98 326 2.0 3.0 0.00 0.00 0.00 42 1011.3
20260905223518 99 306 2.0 3.0 0.00 0.00 0.00 41 1011.3
20260905222518 100 308 2.0 3.0 0.00 0.00 0.00 37 1011.4
20260905221518 100 320 2.0 3.0 0.00 0.00 0.00 37 1011.3
20260905220519 100 326 1.0 3.0 0.00 0.00 0.00 38 1011.4
20260905215518 100 337 2.0 3.0 0.00 0.00 0.00 39 1011.4
20260905214515 100 335 2.0 4.0 0.00 0.00 0.00 38 1011.4
20260905213516 100 319 2.0 5.0 0.00 0.00 0.00 38 1011.4
20260905212516 100 331 2.0 4.0 0.00 0.00 0.00 37 1011.4
20260905211516 101 345 2.0 3.0 0.00 0.00 0.00 37 1011.5
20260905210516 100 348 1.0 3.0 0.00 0.00 0.00 38 1011.6
20260905205516 101 329 3.0 4.0 0.00 0.00 0.00 37 1011.7
20260905204517 102 334 2.0 4.0 0.00 0.00 0.00 36 1011.9
20260905203517 102 336 2.0 4.0 0.00 0.00 0.00 36 1011.9
20260905202516 102 318 2.0 4.0 0.00 0.00 0.00 36 1012.1
20260905201517 102 307 2.0 3.0 0.00 0.00 0.00 35 1012.2
20260905200517 101 308 2.0 6.0 0.00 0.00 0.00 37 1012.3
20260905195517 101 321 2.0 3.0 0.00 0.00 0.00 38 1012.4
20260905194517 101 340 2.0 4.0 0.00 0.00 0.00 38 1012.5
20260905193518 101 310 2.0 5.0 0.00 0.00 0.00 38 1012.5
20260905192517 101 340 2.0 4.0 0.00 0.00 0.00 38 1012.6
20260905191518 101 323 2.0 5.0 0.00 0.00 0.00 40 1012.7
20260905190518 101 311 2.0 5.0 0.00 0.00 0.00 41 1012.9
20260905185518 101 305 2.0 4.0 0.00 0.00 0.00 40 1013.0
20260905184518 101 312 2.0 5.0 0.00 0.00 0.00 42 1013.1
20260905183518 100 329 2.0 4.0 0.00 0.00 0.00 44 1013.2
20260905182516 99 313 2.0 4.0 0.00 0.00 0.00 45 1013.3
20260905181516 99 347 1.0 5.0 0.00 0.00 0.00 45 1013.5
20260905180516 99 306 2.0 4.0 0.00 0.00 0.00 45 1013.6
20260905175516 98 302 2.0 4.0 0.00 0.00 0.00 44 1013.7
20260905174516 97 359 2.0 3.0 0.00 0.00 0.00 47 1013.8
20260905173516 97 334 2.0 4.0 0.00 0.00 0.00 45 1013.8
20260905172516 97 335 2.0 4.0 0.00 0.00 0.00 49 1013.9
20260905171517 96 326 2.0 5.0 0.00 0.00 0.00 49 1014.0
20260905170517 95 336 2.0 4.0 0.00 0.00 0.00 51 1014.0
20260905165517 95 348 2.0 3.0 0.00 0.00 0.00 53 1014.0
20260905164517 94 357 2.0 3.0 0.00 0.00 0.00 54 1014.1
20260905163517 94 4 2.0 3.0 0.00 0.00 0.00 54 1014.1
20260905162517 95 357 1.0 3.0 0.00 0.00 0.00 53 1014.2